Flag for Chile Weather past 2 weeks in Santiago, Chile

Now
43 °F

Clear.


Feels Like: 43 °F
Forecast: 39 / 65 °F
Wind: 2 mph from North

Location: Pudahuel

Current Time: May 24, 2015 at 3:06:21 AM

Latest Report: May 24, 2015 at 2:00 AM


Visibility: 4 mi

Pressure: 30.12 "Hg

Humidity: 71%

Dew point: 34 °F

Location of SantiagoLocation

Historic Weather in Santiago — Graph

°F

Santiago temperature yesterday

Maximum temperature yesterday: 59 °F (at 4:00 PM)
Minimum temperature yesterday: 45 °F (at 2:00 AM)
Average temperature yesterday: 52 °F

Past Weeks' High & Low Weather Summary

 TemperatureHumidityPressure
High86 °F (May 19, 4:00 PM)100% (May 22, 7:00 AM)30.15 "Hg (May 22, 7:00 AM)
Low39 °F (May 14, 9:00 AM)8% (May 19, 4:00 PM)29.83 "Hg (May 11, 4:00 PM)
Average55 °F60%30.03 "Hg
* Reported May 9 2:00 AM — May 24 2:00 AM, Santiago, Weather by CustomWeather, © 2015

Note: Actual official high and low records may vary slightly from our data, if they occured in-between our weather recording intervals... More about our weather records

Advertising

Santiago weather history for previous 24 hours

 ConditionsComfort  
Time TempWeatherWind HumidityBarometerVisibility
2:00 AM
Sun, May 24
43 °FClear.2 mph71%30.12 "Hg4 mi
1:00 AM45 °FClear.1 mph66%30.12 "Hg5 mi
12:00 AM46 °FPassing clouds.3 mph62%30.12 "HgN/A
11:00 PM
Sat, May 23
48 °FPassing clouds.2 mph66%30.12 "Hg5 mi
10:00 PM50 °FPassing clouds.1 mph58%30.12 "HgN/A
9:00 PM54 °FPassing clouds.7 mph54%30.09 "HgN/A
8:00 PM55 °FPassing clouds.6 mph47%30.09 "HgN/A
7:00 PM57 °FPassing clouds.5 mph55%30.09 "Hg5 mi
6:00 PM59 °FClear.6 mph51%30.09 "Hg5 mi
5:00 PM59 °FSunny.6 mph51%30.07 "Hg5 mi
4:00 PM59 °FPassing clouds.3 mph51%30.07 "Hg4 mi
3:00 PM57 °FPartly sunny.6 mph55%30.07 "HgN/A
2:00 PM55 °FPartly sunny.5 mph63%30.09 "HgN/A
1:00 PM54 °FPartly sunny.7 mph67%30.09 "HgN/A
12:00 PM52 °FOvercast.5 mph72%30.12 "HgN/A
11:00 AM52 °FOvercast.7 mph72%30.12 "HgN/A
10:00 AM52 °FOvercast.3 mph72%30.09 "HgN/A
9:00 AM50 °FOvercast.5 mph76%30.09 "HgN/A
8:00 AM50 °FPartly sunny.5 mph76%30.09 "HgN/A
7:00 AM50 °FPassing clouds.3 mph76%30.07 "HgN/A
6:00 AM50 °FPassing clouds.5 mph76%30.07 "HgN/A
5:00 AM50 °FPassing clouds.5 mph76%30.07 "HgN/A
4:00 AM50 °FPassing clouds.9 mph76%30.07 "HgN/A
3:00 AM48 °FPassing clouds.3 mph82%30.07 "Hg4 mi
Weather by CustomWeather, © 2015

See weather overviewHow to use our weather pages